KG6SIB Weather Reports


time (UTC)temp
F
wind
direction
speed
knots
gust
knots
rain 1hr
in
rain 24hr
in
rain mn
in
humidity
%
barometer
mb
20210723164437 86 193 3.5 7.8 0.00 0.00 0.00 24 1020.7
20210723163938 86 250 2.6 7.8 0.00 0.00 0.00 23 1020.7
20210723163437 86 268 2.6 7.0 0.00 0.00 0.00 24 1020.6
20210723162937 86 259 3.5 7.0 0.00 0.00 0.00 23 1020.7
20210723162437 85 196 5.2 7.0 0.00 0.00 0.00 25 1020.7
20210723161937 85 221 3.5 7.0 0.00 0.00 0.00 24 1020.8
20210723161436 85 265 2.6 7.0 0.00 0.00 0.00 26 1021.0
20210723160936 84 223 2.6 7.0 0.00 0.00 0.00 25 1020.7
20210723160436 84 244 0.9 7.0 0.00 0.00 0.00 24 1020.7
20210723155936 84 223 5.2 6.1 0.00 0.00 0.00 24 1020.8
20210723155436 83 233 4.3 6.1 0.00 0.00 0.00 24 1020.6
20210723154936 83 230 2.6 6.1 0.00 0.00 0.00 25 1020.7
20210723154436 82 197 4.3 6.1 0.00 0.00 0.00 24 1020.7
20210723153936 82 250 2.6 5.2 0.00 0.00 0.00 24 1020.5
20210723153435 82 222 3.5 5.2 0.00 0.00 0.00 24 1020.5
20210723152936 82 205 3.5 7.0 0.00 0.00 0.00 25 1020.4
20210723152435 81 215 4.3 7.0 0.00 0.00 0.00 24 1020.0
20210723151936 81 256 2.6 3.5 0.00 0.00 0.00 28 1020.1
20210723151436 80 63 2.6 2.6 0.00 0.00 0.00 27 1020.1
20210723150935 79 63 0.0 0.0 0.00 0.00 0.00 26 1019.6
20210723150435 79 63 0.0 1.7 0.00 0.00 0.00 29 1019.7
20210723145935 78 63 0.0 1.7 0.00 0.00 0.00 31 1019.8
20210723145435 76 63 1.7 2.6 0.00 0.00 0.00 33 1019.7
20210723144934 75 63 0.0 3.5 0.00 0.00 0.00 39 1019.8
20210723144434 74 63 0.9 5.2 0.00 0.00 0.00 38 1019.6
20210723143934 72 63 2.6 5.2 0.00 0.00 0.00 40 1019.5
20210723143434 71 69 1.7 5.2 0.00 0.00 0.00 42 1019.3
20210723142934 69 71 3.5 4.3 0.00 0.00 0.00 42 1019.1
20210723142434 68 57 1.7 4.3 0.00 0.00 0.00 44 1019.2
20210723141933 67 40 0.9 3.5 0.00 0.00 0.00 45 1018.9
20210723141433 67 40 1.7 4.3 0.00 0.00 0.00 45 1018.9
20210723140933 66 42 2.6 4.3 0.00 0.00 0.00 45 1018.8
20210723140433 66 42 3.5 4.3 0.00 0.00 0.00 45 1018.8
20210723135933 65 42 2.6 5.2 0.00 0.00 0.00 44 1018.8
20210723135433 65 50 3.5 5.2 0.00 0.00 0.00 43 1018.8
20210723134933 64 49 2.6 4.3 0.00 0.00 0.00 43 1018.5
20210723134432 64 45 3.5 4.3 0.00 0.00 0.00 42 1018.4
20210723133933 64 56 1.7 4.3 0.00 0.00 0.00 42 1018.4
20210723133433 64 51 3.5 5.2 0.00 0.00 0.00 41 1018.3
20210723132932 64 51 4.3 5.2 0.00 0.00 0.00 41 1018.3
20210723132432 64 49 3.5 4.3 0.00 0.00 0.00 41 1018.1
20210723131932 64 57 3.5 4.3 0.00 0.00 0.00 41 1018.0
20210723130926 64 52 2.6 7.8 0.00 0.00 0.00 41 1018.0
20210723130426 64 50 1.7 7.8 0.00 0.00 0.00 41 1018.0
20210723125926 64 55 3.5 6.1 0.00 0.00 0.00 41 1018.3
20210723125426 64 46 4.3 5.2 0.00 0.00 0.00 41 1018.3
20210723124925 63 51 4.3 5.2 0.00 0.00 0.00 41 1018.1
20210723124425 63 40 1.7 4.3 0.00 0.00 0.00 41 1018.0
20210723123925 63 53 1.7 4.3 0.00 0.00 0.00 42 1018.1
20210723123425 63 49 1.7 5.2 0.00 0.00 0.00 42 1018.1
20210723122925 63 53 2.6 5.2 0.00 0.00 0.00 42 1018.0
20210723122425 63 42 4.3 6.1 0.00 0.00 0.00 42 1017.9
20210723121925 64 42 2.6 6.1 0.00 0.00 0.00 42 1017.9
20210723121424 63 45 4.3 5.2 0.00 0.00 0.00 41 1017.7
20210723120924 63 54 3.5 5.2 0.00 0.00 0.00 42 1017.8
20210723120424 63 60 1.7 5.2 0.00 0.00 0.00 42 1017.8
20210723115924 63 48 3.5 7.0 0.00 0.00 0.00 42 1017.7
20210723115424 63 50 2.6 7.0 0.00 0.00 0.00 42 1017.7
20210723114924 63 51 3.5 6.1 0.00 0.00 0.00 43 1017.6
20210723114424 63 62 4.3 6.1 0.00 0.00 0.00 43 1017.6
20210723113923 63 69 2.6 6.1 0.00 0.00 0.00 43 1017.7
20210723113423 63 51 2.6 6.1 0.00 0.00 0.00 43 1017.7
20210723112923 63 49 4.3 7.8 0.00 0.00 0.00 44 1017.7
20210723112424 63 42 3.5 7.8 0.00 0.00 0.00 44 1017.7
20210723111924 63 57 4.3 7.8 0.00 0.00 0.00 44 1017.7
20210723111423 63 52 3.5 5.2 0.00 0.00 0.00 44 1017.7
20210723110923 63 49 0.0 6.1 0.00 0.00 0.00 44 1017.6
20210723110423 63 35 1.7 6.1 0.00 0.00 0.00 44 1017.6
20210723105923 63 55 3.5 6.1 0.00 0.00 0.00 43 1018.1
20210723105422 63 54 4.3 5.2 0.00 0.00 0.00 43 1018.1
20210723104923 64 43 2.6 5.2 0.00 0.00 0.00 43 1018.1
20210723104422 64 48 2.6 6.1 0.00 0.00 0.00 41 1018.1
20210723103923 63 44 4.3 6.1 0.00 0.00 0.00 42 1018.2
20210723103423 63 43 2.6 5.2 0.00 0.00 0.00 44 1018.2
20210723102923 63 55 2.6 4.3 0.00 0.00 0.00 44 1018.2
20210723102422 63 36 1.7 5.2 0.00 0.00 0.00 44 1018.1
20210723101923 63 40 2.6 5.2 0.00 0.00 0.00 44 1018.1
20210723101423 64 47 3.5 5.2 0.00 0.00 0.00 44 1018.0
20210723100923 64 43 2.6 6.1 0.00 0.00 0.00 43 1018.0
20210723100422 64 52 4.3 6.1 0.00 0.00 0.00 43 1018.1
20210723095922 64 34 4.3 6.1 0.00 0.00 0.00 43 1018.8
20210723095423 64 42 2.6 6.1 0.00 0.00 0.00 44 1018.8
20210723094923 64 44 3.5 6.1 0.00 0.00 0.00 45 1018.8
20210723094421 64 55 2.6 6.1 0.00 0.00 0.00 44 1018.8
20210723093921 64 56 4.3 6.1 0.00 0.00 0.00 44 1018.8
20210723093422 64 52 5.2 6.1 0.00 0.00 0.00 44 1019.0
20210723092922 64 46 5.2 6.1 0.00 0.00 0.00 45 1018.9
20210723092420 64 52 3.5 6.1 0.00 0.00 0.00 44 1018.9
20210723091921 64 61 4.3 6.1 0.00 0.00 0.00 44 1019.0
20210723091420 64 31 3.5 6.1 0.00 0.00 0.00 45 1018.8
20210723090920 64 14 0.9 5.2 0.00 0.00 0.00 45 1018.9
20210723090450 64 40 2.6 7.0 0.00 0.00 0.00 45 1019.0
20210723085920 64 41 1.7 7.0 0.00 0.00 0.00 45 1019.1
20210723085419 64 40 3.5 5.2 0.00 0.00 0.00 45 1019.0
20210723084919 64 50 3.5 7.0 0.00 0.00 0.00 44 1018.9
20210723084418 64 55 2.6 7.0 0.00 0.00 0.00 43 1018.9
20210723083919 64 59 5.2 7.0 0.00 0.00 0.00 44 1018.9
20210723083418 64 69 3.5 7.8 0.00 0.00 0.00 43 1018.8
20210723082918 64 55 2.6 7.8 0.00 0.00 0.00 43 1018.8
20210723082418 65 60 5.2 6.1 0.00 0.00 0.00 43 1019.0
20210723081919 65 34 4.3 6.1 0.00 0.00 0.00 43 1019.1
20210723081418 65 56 3.5 7.0 0.00 0.00 0.00 43 1019.0
20210723080918 65 49 3.5 7.0 0.00 0.00 0.00 43 1018.8
20210723080419 65 58 4.3 6.1 0.00 0.00 0.00 42 1018.8
20210723075917 66 52 4.3 5.2 0.00 0.00 0.00 43 1019.0
20210723075417 66 39 2.6 4.3 0.00 0.00 0.00 43 1019.1
20210723074918 66 64 3.5 5.2 0.00 0.00 0.00 43 1019.0
20210723074418 66 57 2.6 5.2 0.00 0.00 0.00 43 1019.1
20210723073918 67 62 2.6 6.1 0.00 0.00 0.00 43 1019.2
20210723073417 67 36 2.6 6.1 0.00 0.00 0.00 43 1019.2
20210723072917 67 42 3.5 6.1 0.00 0.00 0.00 43 1019.2
20210723072417 67 43 3.5 5.2 0.00 0.00 0.00 44 1019.3
20210723071916 67 55 2.6 5.2 0.00 0.00 0.00 45 1019.4
20210723070934 68 51 3.5 5.2 0.00 0.00 0.00 48 1019.6
20210723070433 68 41 1.7 6.1 0.00 0.00 0.00 48 1019.6
20210723065934 68 44 4.3 6.1 0.00 0.00 0.00 49 1019.4
20210723065434 68 49 4.3 5.2 0.00 0.00 0.00 48 1019.5
20210723064934 68 48 4.3 7.8 0.00 0.00 0.00 48 1019.5
20210723064433 68 55 3.5 8.7 0.00 0.00 0.00 52 1019.7
20210723063934 68 58 5.2 8.7 0.00 0.00 0.00 54 1019.7
20210723063433 68 52 2.6 6.1 0.00 0.00 0.00 53 1019.8
20210723062932 68 63 3.5 6.1 0.00 0.00 0.00 55 1019.9
20210723062433 68 59 3.5 7.8 0.00 0.00 0.00 56 1019.9
20210723061933 68 68 2.6 7.8 0.00 0.00 0.00 57 1020.0
20210723061433 68 53 4.3 7.8 0.00 0.00 0.00 57 1019.8
20210723060932 68 49 3.5 7.0 0.00 0.00 0.00 59 1019.9
20210723060432 68 69 3.5 7.0 0.00 0.00 0.00 59 1020.0
20210723055932 68 42 2.6 5.2 0.00 0.00 0.00 61 1019.9
20210723055432 69 55 2.6 7.0 0.00 0.00 0.00 62 1019.8
20210723054932 69 49 6.1 7.0 0.00 0.00 0.00 64 1019.7
20210723054432 69 55 4.3 6.1 0.00 0.00 0.00 63 1019.7
20210723053932 69 47 4.3 5.2 0.00 0.00 0.00 63 1019.7
20210723053430 69 42 2.6 5.2 0.00 0.00 0.00 63 1019.8
20210723052931 69 44 4.3 7.0 0.00 0.00 0.00 63 1019.8
20210723052430 69 55 4.3 7.0 0.00 0.00 0.00 62 1019.8
20210723051930 69 46 2.6 7.0 0.00 0.00 0.00 62 1019.8
20210723051430 69 57 5.2 7.0 0.00 0.00 0.00 63 1020.0
20210723050930 69 42 3.5 5.2 0.00 0.00 0.00 61 1020.0
20210723050430 69 45 3.5 5.2 0.00 0.00 0.00 61 1020.0
20210723045930 69 40 3.5 5.2 0.00 0.00 0.00 61 1020.0
20210723045429 69 45 3.5 5.2 0.00 0.00 0.00 61 1020.0
20210723044929 69 49 4.3 5.2 0.00 0.00 0.00 60 1019.9
20210723044429 69 44 3.5 5.2 0.00 0.00 0.00 63 1019.9
20210723043929 69 57 0.9 5.2 0.00 0.00 0.00 61 1019.8
20210723043429 69 55 0.9 5.2 0.00 0.00 0.00 61 1020.0
20210723042929 69 55 1.7 5.2 0.00 0.00 0.00 60 1019.9
20210723042429 69 55 3.5 5.2 0.00 0.00 0.00 61 1019.9
20210723041928 70 48 3.5 5.2 0.00 0.00 0.00 61 1019.8
20210723041429 70 54 3.5 5.2 0.00 0.00 0.00 60 1019.8
20210723040928 70 55 1.7 4.3 0.00 0.00 0.00 60 1019.7
20210723040428 70 55 2.6 4.3 0.00 0.00 0.00 60 1019.7
20210723035928 70 55 2.6 4.3 0.00 0.00 0.00 59 1019.5
20210723035428 70 55 3.5 4.3 0.00 0.00 0.00 59 1019.4
20210723034927 70 55 2.6 4.3 0.00 0.00 0.00 58 1019.1
20210723034427 70 55 3.5 4.3 0.00 0.00 0.00 58 1019.1
20210723033927 70 55 3.5 5.2 0.00 0.00 0.00 57 1019.1
20210723033427 71 55 3.5 5.2 0.00 0.00 0.00 58 1019.1
20210723032927 71 57 2.6 5.2 0.00 0.00 0.00 58 1019.0
20210723032427 71 57 1.7 5.2 0.00 0.00 0.00 57 1019.0
20210723031927 71 74 2.6 4.3 0.00 0.00 0.00 58 1019.0
20210723031427 72 75 0.0 2.6 0.00 0.00 0.00 60 1019.0
20210723030927 72 75 0.9 3.5 0.00 0.00 0.00 60 1019.0
20210723030426 72 75 0.0 3.5 0.00 0.00 0.00 62 1018.9
20210723025927 72 75 2.6 4.3 0.00 0.00 0.00 62 1018.2
20210723025426 72 75 1.7 4.3 0.00 0.00 0.00 62 1018.2
20210723024927 72 75 2.6 4.3 0.00 0.00 0.00 64 1018.2
20210723024426 72 59 3.5 4.3 0.00 0.00 0.00 64 1018.1
20210723023926 72 59 2.6 4.3 0.00 0.00 0.00 64 1018.0
20210723023426 73 80 3.5 4.3 0.00 0.00 0.00 64 1018.0
20210723022925 73 61 0.0 2.6 0.00 0.00 0.00 64 1018.0
20210723022426 73 62 0.0 1.7 0.00 0.00 0.00 64 1018.1
20210723021925 73 61 0.0 0.0 0.00 0.00 0.00 64 1018.0
20210723021425 73 61 0.0 3.5 0.00 0.00 0.00 64 1018.0
20210723020925 73 62 0.0 3.5 0.00 0.00 0.00 64 1018.0
20210723020425 73 62 3.5 3.5 0.00 0.00 0.00 64 1018.0
20210723015925 73 355 1.7 1.7 0.00 0.00 0.00 64 1017.2
20210723015424 73 264 1.7 3.5 0.00 0.00 0.00 64 1017.1
20210723014924 73 264 0.0 7.0 0.00 0.00 0.00 63 1017.0
20210723014424 74 248 1.7 7.0 0.00 0.00 0.00 62 1017.1
20210723013924 75 249 1.7 6.1 0.00 0.00 0.00 61 1017.1
20210723013424 75 182 4.3 5.2 0.00 0.00 0.00 60 1016.9
20210723012924 75 200 3.5 3.5 0.00 0.00 0.00 60 1016.6
20210723012424 75 214 0.0 1.7 0.00 0.00 0.00 60 1016.7
20210723011924 75 214 0.9 1.7 0.00 0.00 0.00 60 1016.6
20210723010927 75 214 0.9 5.2 0.00 0.00 0.00 60 1016.6
20210723010427 75 221 1.7 6.1 0.00 0.00 0.00 60 1016.6
20210723005927 75 234 2.6 6.1 0.00 0.00 0.00 60 1016.2
20210723005426 76 207 4.3 6.1 0.00 0.00 0.00 59 1016.1
20210723004926 76 188 0.0 2.6 0.00 0.00 0.00 60 1016.2
20210723004426 76 195 0.0 3.5 0.00 0.00 0.00 60 1016.2
20210723003926 75 192 0.9 4.3 0.00 0.00 0.00 60 1016.2
20210723003426 75 198 1.7 5.2 0.00 0.00 0.00 60 1016.0
20210723002926 75 186 2.6 6.1 0.00 0.00 0.00 60 1016.1
20210723002426 76 206 1.7 7.0 0.00 0.00 0.00 59 1016.1
20210723001925 76 183 4.3 7.8 0.00 0.00 0.00 59 1016.1
20210723001425 76 196 2.6 7.8 0.00 0.00 0.00 58 1016.1
20210723000926 76 229 3.5 7.8 0.00 0.00 0.00 58 1016.0
20210723000425 76 237 1.7 7.8 0.00 0.00 0.00 58 1016.1
20210722235925 77 182 3.5 7.0 0.00 0.00 0.00 57 1016.7
20210722235425 77 246 1.7 7.8 0.00 0.00 0.00 56 1016.7
20210722234925 77 224 1.7 7.8 0.00 0.00 0.00 56 1016.6
20210722234425 78 190 3.5 8.7 0.00 0.00 0.00 55 1016.8
20210722233925 78 194 7.0 8.7 0.00 0.00 0.00 55 1016.8
20210722233425 78 212 4.3 7.0 0.00 0.00 0.00 54 1016.7
20210722232924 78 261 5.2 6.1 0.00 0.00 0.00 53 1016.7
20210722232425 79 234 2.6 8.7 0.00 0.00 0.00 53 1016.6
20210722231924 79 221 3.5 8.7 0.00 0.00 0.00 52 1016.3
20210722231424 80 242 2.6 7.0 0.00 0.00 0.00 52 1016.6
20210722230924 81 269 7.0 7.0 0.00 0.00 0.00 51 1016.8
20210722230423 81 284 6.1 8.7 0.00 0.00 0.00 49 1016.8
20210722225923 82 306 3.5 8.7 0.00 0.00 0.00 48 1017.1
20210722225423 83 268 2.6 9.6 0.00 0.00 0.00 48 1017.2
20210722224923 83 319 4.3 9.6 0.00 0.00 0.00 47 1017.5
20210722224424 84 243 7.0 9.6 0.00 0.00 0.00 46 1017.7
20210722223924 85 269 3.5 9.6 0.00 0.00 0.00 45 1017.5
20210722223423 85 262 5.2 9.6 0.00 0.00 0.00 45 1017.4
20210722222922 86 232 8.7 9.6 0.00 0.00 0.00 44 1017.7
20210722222423 86 238 2.6 11.3 0.00 0.00 0.00 43 1017.8
20210722221922 88 264 8.7 12.2 0.00 0.00 0.00 41 1018.0
20210722221423 89 291 6.1 12.2 0.00 0.00 0.00 40 1017.8
20210722220922 89 269 3.5 12.2 0.00 0.00 0.00 39 1017.8
20210722220422 88 267 9.6 13.0 0.00 0.00 0.00 41 1017.7
20210722215922 88 240 4.3 13.0 0.00 0.00 0.00 40 1017.8
20210722215422 88 226 5.2 11.3 0.00 0.00 0.00 40 1017.6
20210722214921 88 287 7.8 11.3 0.00 0.00 0.00 40 1017.6
20210722214421 87 276 3.5 10.4 0.00 0.00 0.00 41 1017.2
20210722213921 86 257 2.6 9.6 0.00 0.00 0.00 42 1017.4
20210722213421 85 284 5.2 10.4 0.00 0.00 0.00 42 1017.2
20210722212921 86 294 6.1 11.3 0.00 0.00 0.00 41 1017.6
20210722212421 86 232 9.6 12.2 0.00 0.00 0.00 41 1017.7
20210722211920 86 212 4.3 12.2 0.00 0.00 0.00 40 1017.6
20210722211422 87 208 9.6 10.4 0.00 0.00 0.00 39 1017.5
20210722210921 88 209 4.3 8.7 0.00 0.00 0.00 37 1017.8
20210722210452 89 261 7.0 10.4 0.00 0.00 0.00 36 1017.8
20210722205920 90 297 4.3 11.3 0.00 0.00 0.00 35 1018.0
20210722205420 91 284 5.2 11.3 0.00 0.00 0.00 35 1018.4
20210722204920 90 258 2.6 11.3 0.00 0.00 0.00 35 1018.0
20210722204420 91 284 6.1 11.3 0.00 0.00 0.00 35 1018.2
20210722203919 91 288 8.7 11.3 0.00 0.00 0.00 35 1018.3
20210722203419 91 266 2.6 11.3 0.00 0.00 0.00 35 1018.3
20210722202920 91 262 8.7 11.3 0.00 0.00 0.00 35 1018.3
20210722202420 90 255 2.6 11.3 0.00 0.00 0.00 36 1018.1
20210722201919 91 257 8.7 12.2 0.00 0.00 0.00 36 1018.3
20210722201450 91 292 7.0 12.2 0.00 0.00 0.00 36 1018.3
20210722200919 90 316 9.6 11.3 0.00 0.00 0.00 36 1018.2
20210722200448 90 245 7.8 11.3 0.00 0.00 0.00 35 1018.1
20210722195919 90 277 3.5 10.4 0.00 0.00 0.00 37 1018.5
20210722195419 90 282 7.0 10.4 0.00 0.00 0.00 37 1018.5
20210722194919 89 288 6.1 10.4 0.00 0.00 0.00 37 1018.3
20210722194418 89 270 5.2 10.4 0.00 0.00 0.00 37 1018.3
20210722193919 89 243 7.8 11.3 0.00 0.00 0.00 37 1018.3
20210722193447 89 273 5.2 11.3 0.00 0.00 0.00 38 1018.3
20210722192918 89 288 4.3 9.6 0.00 0.00 0.00 37 1018.2
20210722192418 89 309 6.1 10.4 0.00 0.00 0.00 39 1018.2
20210722191948 88 301 2.6 12.2 0.00 0.00 0.00 38 1018.2
20210722190933 89 238 4.3 13.9 0.00 0.00 0.00 38 1018.2
20210722190432 89 292 3.5 13.9 0.00 0.00 0.00 38 1018.3
20210722185934 89 294 1.7 9.6 0.00 0.00 0.00 37 1018.5
20210722185432 89 302 6.1 9.6 0.00 0.00 0.00 38 1018.5
20210722184933 89 287 3.5 12.2 0.00 0.00 0.00 38 1018.6
20210722184433 89 236 2.6 12.2 0.00 0.00 0.00 37 1018.4
20210722183932 88 286 7.0 8.7 0.00 0.00 0.00 37 1018.2
20210722183431 89 241 5.2 8.7 0.00 0.00 0.00 37 1018.5
20210722182932 88 249 6.1 12.2 0.00 0.00 0.00 38 1018.3
20210722182432 88 205 4.3 12.2 0.00 0.00 0.00 38 1018.2
20210722181931 88 282 6.1 9.6 0.00 0.00 0.00 38 1018.4
20210722181430 87 240 7.0 7.8 0.00 0.00 0.00 39 1018.3
20210722180931 87 248 6.1 9.6 0.00 0.00 0.00 38 1018.1
20210722180430 86 240 7.0 9.6 0.00 0.00 0.00 38 1018.0
20210722175930 86 241 3.5 11.3 0.00 0.00 0.00 38 1017.9
20210722175429 86 200 7.8 11.3 0.00 0.00 0.00 37 1017.8
20210722174930 87 201 7.0 10.4 0.00 0.00 0.00 36 1017.9
20210722174429 88 197 7.0 7.8 0.00 0.00 0.00 36 1018.1
20210722173930 87 261 7.0 9.6 0.00 0.00 0.00 36 1017.9
20210722173430 87 240 7.8 11.3 0.00 0.00 0.00 35 1017.9
20210722172930 86 242 4.3 11.3 0.00 0.00 0.00 35 1017.7
20210722172430 87 224 8.7 9.6 0.00 0.00 0.00 35 1017.8
20210722171930 86 203 5.2 10.4 0.00 0.00 0.00 35 1017.6
20210722171429 87 249 7.8 10.4 0.00 0.00 0.00 35 1017.7
20210722170929 86 200 5.2 10.4 0.00 0.00 0.00 34 1017.5
20210722170429 86 222 4.3 9.6 0.00 0.00 0.00 35 1017.4
20210722165929 86 246 2.6 9.6 0.00 0.00 0.00 35 1017.4
20210722165429 86 217 6.1 8.7 0.00 0.00 0.00 34 1017.4
20210722164928 87 207 8.7 8.7 0.00 0.00 0.00 34 1017.3